Temperature
28 28 29 30 29 29 29 29 29 29 28 27 27 27 26 24 23 23 22 21 20 19 18 18 18 18 18 18 18 18 18 18 17 17 17 17 16 16 16 16 16 15 15 15
28 29 30 30 29 29 29 29 29 29 27 27 27 27 27 25 23 23 22 21 20 19 18 18 18 18 18 18 18 18 18 18 17 17 17 17 16 16 16 16 16 15 15 15
28 30 30 29 29 29 29 29 29 28 28 27 27 28 26 25 23 22 22 21 21 20 19 18 18 18 18 18 18 17 18 18 17 17 17 17 17 16 16 16 15 15 15 14
29 30 29 29 29 29 29 29 28 28 28 28 27 27 27 26 25 24 23 22 21 20 19 19 18 18 18 18 18 18 18 18 18 18 17 17 17 16 16 16 15 15 15 14
29 29 29 29 29 29 29 28 28 28 28 28 28 27 28 26 26 25 24 23 22 21 20 19 19 18 18 18 18 18 18 18 18 17 17 17 17 16 16 16 15 15 15 14
29 30 29 29 29 29 28 28 28 27 28 27 27 27 27 27 27 26 25 23 22 22 21 20 19 19 18 18 18 18 18 18 18 18 17 17 16 16 16 16 15 15 14 14
29 29 30 29 29 28 28 28 28 27 27 27 27 27 27 28 27 27 25 24 23 22 21 20 19 19 18 18 18 18 18 18 18 18 17 17 17 16 16 16 15 15 15 14
28 29 30 29 29 29 28 28 27 26 27 28 28 27 28 28 27 26 25 24 23 22 21 20 20 19 19 18 18 18 18 18 18 18 18 17 17 16 16 16 15 15 15 14
29 29 29 29 29 29 28 28 29 28 28 27 28 28 28 27 27 26 25 25 24 23 22 21 20 20 19 19 18 18 18 18 18 18 18 17 17 17 16 16 16 15 15 14
29 28 29 29 28 27 28 29 28 27 26 26 27 28 28 28 27 27 26 25 24 23 23 22 21 20 20 19 19 18 18 19 18 18 18 18 17 17 17 16 16 16 15 15
29 28 28 28 27 28 27 27 27 28 27 26 26 27 29 28 27 27 27 26 25 24 23 22 21 21 20 20 19 18 19 19 18 18 18 18 18 17 17 17 16 16 16 15
28 28 28 28 28 28 28 28 27 26 26 26 27 28 28 28 28 27 27 26 25 24 24 23 22 21 21 20 20 19 19 19 19 19 19 18 18 18 17 17 17 16 16 15
27 27 26 26 27 26 27 28 28 28 27 27 26 27 28 28 28 27 26 26 25 24 24 23 22 21 21 20 20 20 19 19 19 19 19 19 18 18 18 17 17 16 16 15
26 27 27 26 27 27 27 27 27 27 27 27 27 27 28 28 27 26 25 25 24 24 23 23 23 22 21 21 20 20 20 20 19 19 19 19 19 18 18 17 17 17 16 16
26 26 27 27 27 27 27 27 27 27 27 27 27 28 27 27 26 25 24 24 24 24 23 23 23 22 21 21 20 20 20 20 19 19 19 19 19 18 18 18 17 17 16 16
25 26 26 26 27 27 27 27 27 27 27 27 27 27 27 25 24 23 23 23 23 23 23 23 22 22 21 21 20 20 20 20 19 19 19 19 19 18 18 18 17 17 17 16
25 25 25 26 27 26 26 27 27 27 27 27 27 27 25 24 23 21 21 21 21 21 21 22 21 21 21 21 20 20 20 20 19 19 19 19 19 18 18 17 17 17 17 16
24 24 24 25 25 24 27 27 27 26 26 26 26 25 24 23 21 20 19 19 19 20 20 20 20 20 20 20 20 20 19 19 19 19 19 19 18 18 18 17 17 17 16 16
24 24 24 25 25 25 26 26 26 25 25 25 24 24 23 22 22 20 18 18 18 18 18 19 19 19 19 19 19 19 19 19 18 18 18 18 18 18 17 17 17 17 16 16
22 23 24 24 24 24 25 25 24 25 24 24 23 23 22 22 23 21 17 17 17 17 17 18 18 18 18 18 18 18 18 18 17 17 17 17 17 17 17 17 17 16 16 16
23 23 23 24 23 25 25 24 24 24 23 22 22 21 21 21 20 17 16 16 16 16 17 17 17 17 18 17 18 17 17 17 17 16 16 16 16 16 16 16 16 16 15 15
23 23 23 23 23 24 23 24 24 22 20 21 20 20 19 18 17 16 15 15 15 16 16 16 16 16 16 16 17 16 16 16 15 15 15 16 16 16 15 15 15 15 15 14
23 23 24 24 23 22 22 22 20 20 20 20 19 18 18 17 16 15 15 15 15 15 15 15 16 16 15 15 16 16 15 15 15 15 15 15 15 15 15 14 14 14 14 14
22 21 22 23 23 22 21 20 19 19 19 19 18 17 17 16 15 15 14 14 14 14 14 15 15 15 14 14 14 14 14 14 14 14 14 14 14 14 14 14 13 13 13 13
22 21 22 22 22 21 20 19 18 18 17 17 16 16 16 15 15 14 14 13 13 13 13 13 13 13 13 13 13 13 13 13 13 13 13 13 13 13 13 12 12 12 12 12
21 21 21 21 20 20 19 18 17 17 16 16 15 15 15 15 14 14 13 13 13 13 13 13 13 13 12 12 12 12 12 12 12 12 12 12 12 12 12 12 12 12 11 11
Wind_Speed
6 9 8 5 7 9 11 12 12 8 2 6 8 8 4 6 8 9 9 10 11 11 11 11 10 10 11 11 11 11 11 10 9 8 9 9 8 7 6 6 7 7 6 5
9 11 7 6 7 9 10 12 10 5 1 5 8 9 3 6 9 9 9 10 11 11 12 12 12 12 12 12 12 12 12 11 11 9 8 7 7 7 6 6 7 7 6 6
14 7 3 7 9 10 10 10 11 10 6 6 8 5 4 5 7 8 9 10 11 13 15 14 13 13 13 13 13 12 12 12 11 11 9 7 7 6 6 7 6 7 7 6
11 10 8 10 10 9 10 6 8 8 9 6 4 7 2 4 6 9 10 12 13 14 14 14 14 14 15 14 13 12 12 12 12 12 11 11 9 7 7 7 7 7 7 7
10 7 9 12 9 8 7 4 7 8 8 8 3 6 2 4 4 7 10 12 14 15 15 15 15 15 15 15 14 13 13 13 12 12 11 11 9 7 6 7 8 7 7 7
16 10 9 9 6 5 3 5 6 7 8 5 4 6 3 1 2 4 9 12 13 14 15 15 15 15 15 14 14 14 14 13 13 13 12 11 9 8 8 8 8 8 6 6
15 14 9 7 7 6 7 8 7 5 4 3 2 5 3 2 1 3 8 12 13 14 14 15 16 16 16 16 16 15 16 15 15 14 13 12 11 10 10 9 8 7 6 6
13 12 10 8 9 6 7 8 7 7 7 7 1 3 3 2 2 3 6 10 13 14 14 15 16 17 17 18 17 17 17 16 16 15 14 12 12 10 9 9 7 7 6 5
11 9 5 6 5 6 5 7 7 9 8 8 4 2 1 4 5 6 7 10 12 14 15 16 16 17 17 18 18 18 18 17 16 16 15 13 13 11 9 9 8 7 6 6
12 10 7 6 6 5 6 5 5 7 6 7 5 4 2 2 5 7 8 10 12 13 15 15 16 17 17 17 17 17 17 17 17 16 15 13 13 12 10 10 9 8 8 7
12 11 8 7 9 9 7 7 7 7 7 8 7 3 4 0 3 6 8 10 12 14 15 15 15 16 16 16 17 17 17 17 16 16 15 14 13 12 12 10 10 10 9 9
10 8 10 9 4 4 9 9 8 8 7 7 8 4 5 1 2 4 5 8 11 13 14 15 15 16 16 17 17 17 17 17 17 16 15 14 13 13 12 12 11 11 10 10
8 7 8 8 7 7 8 9 10 9 8 8 9 3 6 2 1 3 4 7 9 12 14 15 15 16 16 16 16 17 17 17 17 16 15 15 14 14 13 12 12 11 11 10
6 8 10 10 5 5 8 9 10 10 9 9 9 8 3 2 1 1 3 6 9 12 14 15 15 16 16 16 16 16 16 16 16 16 16 15 15 14 14 13 12 12 11 11
6 9 10 10 6 7 9 10 11 12 13 13 11 9 6 4 3 3 2 4 7 10 14 15 15 15 15 15 15 15 14 14 14 15 15 15 14 13 13 13 12 12 12 12
6 7 8 10 9 9 11 11 11 12 13 13 13 11 4 3 3 3 2 2 5 7 10 13 14 14 14 14 14 14 14 13 13 14 14 13 13 13 13 12 12 12 12 11
8 7 7 10 8 9 13 11 11 11 10 10 11 6 1 2 3 4 3 2 1 3 5 8 10 11 11 12 12 13 13 13 13 14 13 13 13 13 13 12 12 12 11 11
7 8 6 8 7 11 3 2 4 7 7 6 5 3 2 1 2 4 4 3 2 1 1 3 5 7 8 8 9 10 11 12 13 13 12 12 12 12 12 12 12 11 10 10
5 7 7 8 11 10 4 2 3 5 5 1 2 1 1 3 4 6 7 6 5 4 2 2 2 3 4 6 7 8 9 9 10 11 11 11 12 11 11 12 11 10 10 10
5 7 9 7 8 8 1 4 1 3 4 3 1 1 2 3 3 4 7 7 7 6 6 6 6 6 6 5 6 7 7 7 7 7 8 8 8 9 10 10 10 9 9 10
9 7 9 9 8 5 4 4 4 5 2 4 2 2 2 2 5 6 6 8 9 9 9 9 9 9 8 6 7 7 6 4 3 4 5 5 6 7 7 7 7 7 8 8
6 6 6 6 7 3 5 3 1 3 4 4 4 5 7 9 9 9 8 9 10 11 11 11 10 10 9 8 7 8 6 4 3 3 3 3 3 4 4 5 5 6 6 8
2 2 2 2 1 5 2 2 3 2 4 5 6 8 10 11 10 10 10 10 10 11 11 10 11 12 11 9 8 8 6 4 4 3 3 2 2 2 2 3 5 5 6 7
2 1 2 2 1 3 2 2 1 3 5 7 8 10 11 12 11 11 10 10 10 10 10 10 11 11 10 9 9 8 6 5 5 4 3 2 1 1 1 2 3 4 5 6
1 2 3 4 1 2 4 3 3 6 9 11 11 11 12 13 12 11 10 9 9 9 9 10 11 10 10 10 9 8 7 6 5 5 4 2 2 1 1 1 2 4 4 4
3 3 5 3 4 3 3 3 6 9 11 12 13 13 12 12 12 11 10 9 9 9 8 9 10 10 10 10 9 9 8 7 6 5 4 3 2 2 2 2 2 3 5 3
Wind_Direction
219 246 248 292 309 306 303 301 305 322 331 269 277 284 262 196 203 199 193 190 188 183 174 169 176 181 181 179 176 176 173 170 167 165 167 165 166 164 160 158 152 155 149 145
234 239 258 295 292 289 292 296 305 318 304 279 294 287 251 203 207 205 198 193 187 177 170 173 181 183 187 185 179 176 176 175 178 174 169 169 160 165 159 156 153 163 162 165
240 248 280 283 287 297 299 306 317 318 306 246 289 273 174 185 202 204 203 194 187 181 177 179 185 185 184 185 183 181 178 177 181 171 164 157 155 165 165 168 170 173 175 178
246 258 262 275 288 299 300 330 306 298 291 310 313 316 134 175 197 203 202 195 190 184 183 182 184 187 187 185 182 181 175 177 177 174 177 178 183 183 180 180 173 174 182 184
233 235 260 278 293 293 305 317 291 285 286 291 280 301 61 164 210 199 196 194 192 187 185 185 187 188 189 184 181 179 177 179 179 184 183 188 192 186 176 177 167 182 180 189
256 259 269 276 284 277 255 256 251 248 263 283 350 307 355 76 252 187 184 189 189 186 185 187 187 186 186 183 181 179 179 181 182 187 189 195 192 186 179 184 178 189 185 191
238 240 232 243 248 217 234 271 280 275 271 330 34 295 353 41 193 188 179 183 185 183 183 185 185 185 185 184 184 183 182 184 186 189 192 195 195 190 190 194 190 199 194 193
233 232 214 215 240 261 244 274 289 306 316 325 260 306 18 99 150 175 176 177 181 184 185 186 188 187 187 186 185 185 186 188 188 192 195 196 196 200 198 198 198 199 206 198
236 239 182 205 228 252 246 255 291 285 285 290 305 311 166 153 169 173 175 177 182 185 186 187 188 188 189 189 188 188 189 190 191 195 194 196 198 205 197 187 199 199 199 191
245 253 224 192 199 218 266 269 252 273 294 297 299 294 346 157 173 175 181 185 184 185 187 189 189 191 191 192 190 191 191 193 193 195 196 197 197 199 196 195 196 197 196 195
232 240 224 206 225 232 205 222 248 269 282 291 302 325 50 71 186 184 185 188 186 187 187 187 188 190 191 192 190 191 193 195 196 198 197 199 197 197 196 196 196 196 198 196
209 231 243 233 226 262 241 240 233 256 265 262 286 304 86 80 189 185 187 185 187 187 186 185 185 186 189 192 193 194 196 197 198 197 196 198 197 197 198 199 199 197 199 201
179 209 233 227 210 208 228 229 237 253 267 263 269 282 113 125 199 179 191 184 186 189 188 186 185 187 191 193 195 196 199 200 199 196 196 197 198 198 201 202 199 199 202 206
199 225 246 258 262 212 217 217 225 238 253 261 263 285 286 297 288 245 213 200 194 193 191 191 190 192 194 196 197 199 201 200 198 196 196 197 199 198 199 198 197 199 202 206
208 229 239 256 255 254 252 239 228 236 257 271 280 284 296 330 341 323 272 224 208 198 197 198 199 198 199 200 201 203 202 201 199 197 199 200 198 197 197 197 198 200 204 210
210 237 242 245 243 248 253 250 245 243 254 262 272 279 321 18 11 1 332 243 218 209 206 204 204 203 202 203 203 202 202 198 194 197 201 198 193 192 194 196 198 201 206 213
197 212 235 248 233 244 246 244 246 245 250 263 271 285 11 344 12 15 9 350 252 230 221 211 207 207 206 205 204 203 199 194 192 197 197 193 191 193 194 196 199 203 206 211
207 214 231 248 234 243 249 63 266 260 261 266 272 294 319 1 61 57 39 28 19 357 243 209 202 197 199 199 198 196 195 192 193 195 196 193 192 193 193 198 203 206 211 216
210 211 233 242 242 248 222 196 237 252 261 297 277 274 134 127 138 91 52 41 39 37 43 77 127 152 156 166 172 173 181 185 189 194 195 194 192 192 193 200 206 209 214 220
190 218 234 233 251 254 182 119 143 252 230 99 97 145 161 198 223 79 46 45 50 53 61 70 78 85 96 111 133 146 156 170 184 188 188 188 190 194 198 204 209 212 218 228
192 207 230 238 247 256 91 128 193 248 69 91 94 126 141 84 62 84 68 61 61 62 65 69 74 75 75 85 106 114 118 135 160 167 171 177 185 200 206 207 209 216 222 232
211 211 219 231 239 230 111 169 257 47 92 106 106 115 109 105 103 96 84 74 70 71 69 70 74 72 69 72 85 91 86 87 103 122 143 158 174 204 208 210 215 221 233 237
238 303 289 254 27 72 79 49 63 110 128 124 122 121 120 116 111 102 92 83 75 72 70 69 72 70 62 60 66 71 61 61 77 93 108 123 144 180 220 224 226 229 232 249
176 350 277 266 76 68 73 69 124 137 131 124 121 122 121 116 111 103 95 87 79 73 72 73 73 71 65 58 58 60 54 56 73 76 74 84 108 163 199 241 248 256 257 260
358 213 259 258 343 81 64 54 112 126 124 120 115 115 115 114 109 105 98 89 83 79 76 76 76 76 72 67 61 54 51 54 63 65 64 62 68 50 285 267 286 280 289 303
356 317 299 320 16 348 37 68 127 132 128 124 120 115 112 109 108 104 97 92 88 84 80 76 73 72 69 66 62 54 50 50 49 50 40 29 17 5 328 315 298 230 253 258
Height
1512 1509 1502 1499 1498 1499 1498 1497 1495 1490 1491 1494 1493 1492 1493 1498 1502 1504 1506 1509 1512 1515 1519 1521 1524 1527 1530 1534 1538 1542 1545 1549 1552 1555 1558 1560 1563 1565 1566 1568 1568 1569 1570 1570
1508 1503 1497 1498 1498 1497 1495 1495 1490 1488 1491 1493 1491 1489 1489 1495 1499 1501 1504 1507 1510 1514 1517 1520 1523 1526 1529 1532 1535 1540 1544 1547 1551 1554 1557 1559 1562 1564 1566 1567 1567 1568 1569 1569
1503 1495 1497 1498 1495 1494 1491 1492 1491 1491 1489 1489 1491 1485 1488 1492 1497 1500 1502 1505 1508 1512 1515 1518 1521 1524 1527 1531 1534 1539 1542 1546 1549 1552 1555 1558 1560 1562 1564 1565 1566 1567 1568 1568
1497 1494 1496 1494 1491 1492 1492 1488 1490 1490 1491 1486 1491 1493 1484 1487 1492 1495 1499 1502 1505 1509 1513 1516 1519 1522 1526 1529 1533 1537 1540 1544 1547 1551 1554 1557 1559 1562 1563 1564 1565 1566 1566 1567
1493 1492 1493 1493 1490 1490 1489 1490 1489 1488 1488 1488 1485 1489 1482 1483 1487 1489 1494 1498 1502 1506 1510 1513 1517 1520 1524 1528 1531 1535 1538 1542 1546 1549 1552 1555 1558 1560 1562 1563 1563 1564 1565 1565
1489 1488 1490 1488 1487 1488 1489 1489 1487 1486 1484 1493 1488 1491 1485 1479 1482 1483 1489 1494 1499 1503 1507 1511 1515 1519 1522 1526 1529 1533 1536 1540 1543 1547 1550 1553 1556 1558 1560 1561 1561 1562 1563 1564
1488 1484 1485 1486 1487 1488 1488 1491 1494 1495 1494 1491 1484 1488 1484 1476 1478 1481 1485 1491 1496 1500 1505 1509 1513 1516 1520 1523 1527 1530 1534 1537 1541 1544 1548 1551 1554 1556 1557 1559 1559 1561 1562 1562
1489 1487 1479 1482 1483 1483 1484 1487 1499 1508 1501 1488 1482 1486 1476 1475 1479 1482 1485 1489 1493 1498 1502 1506 1510 1513 1517 1521 1524 1528 1531 1535 1538 1542 1545 1548 1551 1554 1556 1556 1558 1558 1560 1561
1482 1483 1476 1479 1480 1481 1483 1483 1478 1487 1487 1492 1482 1477 1472 1474 1477 1481 1484 1487 1491 1495 1499 1503 1507 1511 1514 1518 1521 1525 1528 1532 1536 1539 1542 1545 1548 1551 1553 1553 1554 1556 1556 1558
1472 1482 1475 1478 1481 1482 1480 1477 1484 1487 1500 1499 1487 1480 1476 1474 1475 1478 1481 1485 1489 1492 1496 1500 1504 1508 1512 1515 1519 1522 1525 1529 1533 1536 1539 1542 1545 1547 1549 1550 1551 1552 1553 1554
1470 1479 1478 1478 1480 1477 1484 1484 1483 1481 1485 1496 1496 1484 1467 1471 1473 1475 1478 1482 1486 1489 1493 1497 1501 1505 1509 1513 1516 1519 1522 1526 1529 1533 1536 1539 1541 1543 1545 1547 1548 1549 1550 1551
1469 1473 1476 1474 1472 1473 1474 1475 1479 1489 1489 1487 1488 1481 1466 1469 1471 1474 1477 1480 1484 1487 1491 1494 1498 1502 1506 1510 1513 1516 1519 1522 1525 1529 1532 1535 1537 1540 1542 1543 1545 1546 1547 1548
1471 1476 1484 1482 1481 1478 1475 1472 1473 1474 1478 1483 1486 1479 1467 1469 1471 1474 1476 1479 1482 1486 1489 1492 1496 1499 1502 1506 1509 1513 1516 1519 1522 1525 1528 1530 1533 1535 1537 1539 1541 1542 1543 1545
1470 1470 1475 1481 1475 1469 1473 1472 1472 1474 1480 1478 1476 1472 1466 1467 1471 1474 1476 1479 1481 1484 1486 1489 1492 1496 1499 1503 1506 1509 1512 1515 1518 1521 1523 1525 1528 1530 1533 1535 1537 1538 1539 1541
1469 1469 1467 1465 1464 1466 1466 1467 1469 1472 1471 1473 1469 1467 1466 1468 1472 1475 1477 1477 1479 1481 1483 1486 1489 1492 1496 1499 1502 1505 1508 1511 1514 1516 1518 1521 1523 1526 1528 1530 1532 1533 1535 1537
1468 1468 1468 1468 1464 1465 1467 1464 1464 1467 1467 1467 1466 1467 1466 1471 1474 1476 1477 1477 1477 1479 1481 1483 1486 1489 1492 1494 1497 1500 1503 1506 1509 1511 1513 1516 1518 1521 1523 1525 1527 1529 1530 1532
1465 1469 1473 1470 1463 1467 1469 1461 1461 1463 1462 1464 1465 1465 1468 1472 1475 1477 1478 1477 1477 1478 1479 1481 1483 1485 1487 1490 1493 1495 1498 1501 1504 1506 1509 1511 1513 1515 1518 1520 1522 1524 1525 1527
1465 1468 1469 1467 1472 1482 1461 1457 1459 1460 1460 1461 1464 1467 1470 1474 1477 1478 1478 1478 1477 1477 1477 1478 1480 1482 1484 1486 1488 1491 1494 1497 1499 1501 1503 1506 1508 1510 1513 1516 1518 1519 1521 1522
1464 1466 1467 1467 1470 1466 1459 1459 1460 1462 1463 1464 1466 1469 1472 1473 1474 1477 1479 1478 1478 1477 1477 1477 1478 1479 1481 1483 1485 1487 1490 1492 1495 1497 1499 1501 1503 1506 1508 1511 1513 1515 1516 1517
1465 1465 1464 1467 1474 1475 1460 1459 1462 1464 1466 1467 1469 1470 1471 1472 1469 1476 1480 1479 1478 1478 1477 1477 1477 1478 1479 1481 1482 1484 1486 1489 1491 1493 1495 1497 1500 1502 1504 1506 1508 1510 1511 1512
1464 1465 1464 1466 1470 1461 1458 1461 1464 1470 1469 1470 1470 1471 1472 1473 1476 1481 1481 1480 1479 1478 1478 1478 1478 1478 1479 1481 1482 1483 1485 1488 1489 1491 1492 1494 1496 1499 1501 1502 1503 1505 1506 1507
1458 1460 1464 1464 1470 1467 1462 1462 1463 1468 1470 1471 1472 1473 1475 1477 1480 1481 1482 1482 1481 1480 1480 1480 1480 1479 1480 1481 1482 1482 1485 1487 1488 1489 1490 1492 1493 1495 1497 1498 1499 1500 1500 1501
1457 1458 1455 1459 1463 1464 1464 1465 1468 1470 1471 1472 1474 1476 1477 1479 1482 1483 1484 1484 1484 1482 1482 1482 1482 1481 1482 1483 1483 1483 1485 1486 1487 1488 1489 1490 1491 1492 1493 1494 1495 1495 1495 1496
1459 1462 1460 1460 1459 1464 1466 1468 1469 1470 1472 1474 1476 1477 1479 1481 1483 1485 1486 1486 1486 1486 1485 1485 1484 1484 1484 1484 1484 1485 1486 1486 1486 1487 1487 1488 1488 1489 1490 1491 1491 1492 1492 1492
1459 1462 1460 1461 1462 1465 1467 1469 1470 1471 1473 1475 1477 1479 1481 1483 1485 1487 1488 1488 1488 1488 1488 1487 1487 1486 1486 1486 1486 1486 1486 1486 1486 1486 1487 1487 1487 1487 1488 1487 1487 1488 1487 1487
1464 1464 1463 1462 1466 1467 1469 1470 1471 1473 1475 1477 1479 1482 1484 1486 1487 1489 1490 1491 1491 1491 1491 1490 1489 1489 1488 1488 1488 1488 1487 1487 1487 1487 1487 1487 1487 1486 1486 1485 1485 1483 1483 1481